Tracking 23726 objects as of 16-Oct-2021
HD Live streaming from Space Station
objects crossing your sky now

N-1 R/B

Track N-1 R/B now!
10-day predictions


NORAD ID: 10675
Int'l Code: 1978-018B
Perigee: 980.8 km
Apogee: 1,217.2 km
Inclination: 69.4 °
Period: 107.1 minutes
Semi major axis: 7470 km
RCS: 1.3828 m2 (large)
Launch date: February 16, 1978
Source: Japan (JPN)
Launch site: TANEGASHIMA SPACE CENTER (TNSTA)

Note: This is a ROCKET BODY
aabbcc
Your satellite tracking list
Your tracking list is empty




NASA's NSSDC Master Catalog

Two Line Element Set (TLE):
1 10675U 78018B   21288.60538007 -.00000005  00000-0  72039-4 0  9994
2 10675  69.3616  45.9588 0158274 146.1509 306.1773 13.44685888142700
Source of the keplerian elements: AFSPC